RH
42 40 40 38 38 38 37 37 36 35 35 34 35 35 37 39 41 44 46 49 52 54 57 58 59 60 61 61 61 60 59 59 59 60 60 62 63 65 67 69 70 70 69 69 69 70 71 72 73 74 75 77 78 80 81 82 83 83 82 82 81 80 79 77 77 75 74 73 70 68 68 68 68 68 68 67 66 65 65 65 66 66 67 67 68
43 42 41 39 38 38 37 37 37 36 36 34 34 34 34 35 35 35 36 36 38 39 41 43 45 46 48 50 51 52 54 54 55 56 57 58 59 60 62 63 63 62 60 59 59 59 60 61 62 63 64 66 66 67 67 68 69 70 71 72 72 73 73 73 73 72 72 71 69 67 66 66 66 65 65 65 64 64 63 64 64 64 64 64 64
45 44 43 42 40 40 40 39 39 37 37 36 36 36 35 34 34 34 34 34 35 35 35 36 35 35 35 36 36 37 38 39 40 42 43 44 46 47 49 51 52 53 53 53 54 55 56 57 57 58 58 58 58 58 58 58 59 60 60 60 61 62 63 63 63 64 64 63 62 62 61 61 62 61 61 61 61 61 60 60 60 60 61 61 62
44 44 43 43 42 41 42 41 42 41 41 41 40 40 38 37 37 37 38 39 40 40 39 39 37 37 36 36 36 36 36 37 37 38 38 37 36 36 36 36 37 39 40 41 41 42 43 44 45 46 47 47 48 48 49 50 51 51 52 52 52 52 53 53 54 54 54 53 53 53 52 52 53 52 52 53 53 53 53 53 53 53 53 53 54
46 45 43 43 43 42 43 43 44 44 44 45 44 44 44 44 44 43 43 44 45 45 46 45 45 45 46 46 45 45 45 45 45 46 45 44 42 41 40 39 39 40 41 41 40 40 38 38 37 37 37 37 37 38 38 39 39 40 40 41 41 41 42 42 43 43 43 43 43 42 42 42 42 42 42 42 42 43 43 43 43 43 43 44 45
56 55 50 47 46 45 46 46 47 47 47 46 45 45 47 47 48 47 47 47 47 48 49 49 50 51 52 52 52 51 50 50 51 51 50 49 48 48 47 47 47 47 47 48 47 46 45 44 43 42 41 41 40 39 39 38 37 37 37 36 36 36 36 36 36 36 35 35 35 34 34 33 33 33 33 33 33 33 33 33 33 33 33 34 34
71 74 71 67 64 60 59 56 55 55 54 52 51 50 50 50 49 49 49 49 49 49 49 50 51 52 52 52 51 51 51 52 52 52 50 50 49 49 49 49 48 48 48 49 48 48 47 47 46 46 46 45 45 45 44 44 43 43 43 42 41 41 41 40 40 39 39 39 38 37 36 35 34 34 33 32 32 31 31 30 29 29 29 29 29
75 79 80 80 78 77 77 74 72 72 69 65 62 60 59 59 58 56 55 53 52 51 49 48 49 50 51 52 53 54 54 55 53 52 51 50 50 49 49 49 48 48 48 47 47 47 46 46 45 45 45 45 45 45 45 45 45 45 45 45 45 45 45 45 45 45 45 44 44 44 43 42 41 41 40 39 39 38 37 36 35 34 33 33 32
78 80 80 79 79 80 81 82 83 84 83 81 78 76 74 72 69 67 66 64 62 59 56 55 54 53 52 52 54 56 57 57 55 54 53 53 53 52 52 51 51 50 50 50 49 49 48 48 47 47 47 46 45 45 44 43 43 43 43 43 43 43 43 43 43 43 43 43 43 44 43 43 43 43 42 42 42 41 41 40 39 39 38 38 37
84 90 91 87 83 81 77 76 77 78 78 80 82 84 84 84 83 81 81 78 74 71 68 66 64 62 60 60 60 60 60 60 58 57 57 57 57 57 56 55 55 54 54 54 53 53 53 53 52 52 51 49 48 47 46 45 45 44 43 43 42 41 41 41 40 40 40 40 40 40 40 40 40 40 39 39 39 39 39 38 38 38 37 38 37
84 93 99 96 88 83 78 74 72 70 69 69 71 74 77 79 81 84 87 87 86 85 81 78 75 71 70 69 68 67 67 65 63 62 61 61 60 61 61 60 60 60 61 60 59 58 58 58 57 57 56 55 54 53 51 50 49 48 48 47 46 45 44 43 42 42 41 41 41 40 40 40 40 40 39 39 39 38 38 37 37 37 36 37 36
82 91 101 105 97 87 82 77 73 71 71 70 67 65 66 69 70 73 77 79 81 83 84 84 83 82 80 77 74 71 69 67 67 68 67 66 65 64 62 61 62 63 64 64 63 62 62 61 60 60 60 60 59 58 58 57 56 55 54 53 52 50 49 48 47 47 46 45 45 44 44 44 44 44 43 43 42 41 41 40 40 39 39 39 38
93 95 98 104 107 100 92 87 79 72 71 72 72 69 66 67 69 71 71 71 71 72 74 76 77 78 78 78 78 76 72 69 69 70 71 72 71 70 68 66 65 65 66 66 65 62 60 59 60 61 61 62 62 62 63 63 63 62 62 62 60 59 57 56 54 53 51 50 49 48 48 48 47 47 46 46 46 45 45 44 43 43 42 42 41
103 103 100 99 104 106 104 100 91 80 74 75 79 79 74 71 72 74 75 74 73 73 74 75 75 74 73 73 74 75 76 74 71 70 70 72 74 75 76 76 75 74 75 74 71 66 61 61 61 62 62 62 62 62 62 63 63 63 65 66 66 66 66 65 64 63 61 60 58 57 55 54 53 52 51 50 50 49 48 47 46 46 45 45 45
107 106 106 101 101 102 103 103 100 96 92 89 89 89 85 79 76 79 82 82 81 78 77 78 79 77 74 72 72 73 75 76 75 73 71 72 74 76 77 79 80 82 84 85 83 77 72 69 68 67 66 66 65 64 63 63 62 62 64 64 65 65 65 65 65 66 66 66 66 65 65 64 63 62 61 61 60 58 57 56 54 53 52 51 50
109 110 111 108 106 105 103 100 99 98 96 93 91 92 94 92 87 86 88 90 91 88 83 81 82 82 79 77 74 72 72 72 75 76 74 72 70 72 75 79 81 84 86 89 90 87 82 77 73 72 71 72 72 72 72 70 69 68 68 68 67 66 65 64 63 63 64 64 64 65 65 65 64 64 64 65 65 64 63 63 62 61 60 58 57
93 100 105 107 109 109 106 105 103 100 97 93 90 88 93 100 100 96 94 96 99 101 97 89 85 84 84 85 83 80 77 74 75 78 80 79 74 72 73 77 81 84 87 91 93 93 90 86 83 82 80 79 78 77 77 76 74 74 74 74 74 73 71 70 68 67 66 65 65 64 63 62 60 60 60 60 60 60 60 60 59 59 58 58 57
64 75 82 88 95 100 101 102 102 103 103 101 98 92 90 96 102 103 101 99 99 102 103 98 93 90 88 88 88 86 84 81 79 80 84 89 92 91 86 82 82 83 84 86 90 94 96 94 93 93 93 92 89 86 82 79 77 76 76 77 77 77 76 76 75 73 72 70 70 69 67 65 63 61 60 59 58 58 57 56 56 55 55 54 54
39 51 58 63 71 80 86 89 88 89 91 92 94 93 90 90 95 100 104 102 98 98 100 101 101 100 97 94 91 86 83 82 80 80 81 86 96 104 104 100 96 93 90 88 89 92 95 96 95 95 97 97 96 92 88 84 80 78 78 78 77 77 76 76 76 75 74 72 72 72 71 69 67 65 63 62 61 60 59 59 58 57 57 56 56
26 29 37 43 48 55 64 72 75 76 76 76 78 79 81 81 83 88 94 98 99 100 101 101 101 101 101 101 100 96 91 87 83 78 75 75 78 86 93 97 98 97 96 94 94 96 98 99 98 96 95 94 93 90 87 84 80 78 78 78 78 77 76 77 76 75 74 73 71 70 69 68 66 64 63 62 62 62 62 62 62 61 61 61 61
27 23 22 25 30 35 40 47 55 59 61 62 61 61 62 64 67 71 75 82 91 96 99 102 102 100 100 102 104 103 100 97 93 86 79 74 68 66 69 75 80 83 84 85 87 90 93 96 98 97 96 94 92 90 87 84 81 79 78 77 77 77 76 77 77 77 77 75 72 70 69 67 64 61 60 59 59 59 59 60 60 60 60 60 60
30 28 24 20 21 25 28 31 36 41 45 48 48 47 46 45 46 49 53 58 66 75 84 93 99 101 103 104 105 105 103 102 102 97 92 86 78 69 63 62 64 67 71 73 75 77 79 81 85 87 90 91 91 91 90 89 86 83 81 80 79 79 79 80 81 81 80 78 76 74 71 68 64 62 59 58 58 58 58 59 58 57 56 56 56
26 28 28 26 22 21 23 26 28 31 34 38 40 41 40 38 35 34 35 37 41 47 55 66 78 89 100 106 108 108 105 104 104 103 102 101 96 89 81 74 71 70 70 71 72 73 73 74 75 77 80 82 84 86 87 87 87 85 83 82 82 83 85 87 88 89 88 86 84 81 78 73 69 65 63 62 63 64 65 65 64 63 63 62 62
24 25 27 28 27 25 24 24 25 27 28 29 32 34 37 38 37 34 31 30 29 31 34 39 48 59 73 87 99 107 109 108 107 104 103 103 102 102 98 93 90 88 86 84 82 80 79 79 80 80 81 82 83 84 85 85 85 85 84 83 85 88 90 92 93 93 92 92 90 88 85 80 75 71 68 68 69 71 72 72 72 72 72 73 73
24 25 26 27 28 28 27 25 25 25 26 27 28 29 31 33 36 37 36 34 31 29 29 30 32 37 43 53 66 80 91 99 104 104 105 106 106 108 108 104 101 102 101 99 97 94 91 89 88 87 87 86 87 87 88 89 89 90 90 90 91 95 97 98 97 96 95 94 93 91 87 83 78 75 73 74 76 77 77 78 78 77 77 77 77
23 24 25 25 26 26 26 26 25 24 25 25 26 27 28 29 31 33 36 37 37 34 32 31 31 32 34 37 41 48 56 64 71 76 82 87 91 96 100 99 100 100 100 101 101 100 98 98 96 95 94 92 92 91 92 94 95 97 99 99 101 104 105 104 103 101 99 98 96 94 90 84 79 76 77 78 80 80 80 79 79 78 78 77 77
22 22 23 23 24 24 24 24 24 24 24 24 25 25 26 27 29 30 32 34 37 39 39 38 36 35 35 36 37 39 42 45 49 51 54 57 60 64 68 70 73 75 76 78 79 80 82 83 84 85 86 86 87 87 88 91 94 97 99 101 104 107 108 109 108 106 105 104 101 98 91 83 77 76 77 77 77 77 76 74 72 71 70 69 70
21 21 22 23 24 25 24 24 23 23 23 24 24 24 25 26 27 28 29 31 33 36 39 41 42 41 40 39 38 38 40 42 45 48 50 52 53 54 55 56 58 59 60 61 61 61 62 62 62 64 65 66 67 67 68 70 73 76 78 81 85 90 94 98 99 100 100 99 96 91 84 75 69 68 68 66 64 62 59 56 53 51 51 50 51
24 23 22 23 25 26 26 26 25 25 25 25 25 25 24 24 24 25 26 27 28 30 33 36 39 41 42 42 42 41 40 41 42 44 47 50 53 55 56 57 58 59 61 61 61 61 61 61 60 60 59 59 58 58 58 59 59 60 60 62 64 67 71 75 77 78 79 78 77 73 67 61 57 56 55 53 51 48 46 44 42 41 41 42 42
28 27 26 26 27 27 27 27 27 28 28 29 29 29 28 27 27 27 27 27 27 27 28 29 31 34 37 39 41 42 42 43 42 43 44 45 48 50 52 54 56 58 59 61 62 63 63 63 63 63 62 62 61 62 62 62 62 62 63 63 65 66 66 67 68 68 67 66 65 63 61 59 57 57 55 54 53 51 48 47 46 47 47 47 48
30 30 30 30 30 30 30 29 29 30 30 30 30 30 30 29 29 29 28 27 27 26 26 25 26 27 29 32 35 37 39 41 42 42 43 44 44 46 47 49 51 53 56 57 59 60 61 62 62 62 62 63 63 64 64 64 64 64 66 67 68 70 70 71 71 70 69 68 68 67 67 66 65 64 63 61 60 58 56 55 55 56 56 56 56
28 29 29 30 31 30 30 29 28 28 27 27 27 26 25 25 24 23 22 21 20 20 20 20 21 21 23 24 26 28 31 34 36 38 39 40 41 42 43 45 47 49 51 52 53 55 57 58 59 60 61 62 63 63 63 63 63 64 66 67 68 69 70 71 71 70 70 69 70 70 70 69 68 67 66 65 63 62 61 61 61 61 61 61 61
22 23 24 25 25 25 25 25 25 24 24 23 22 21 19 18 16 15 13 12 12 12 12 12 13 14 16 18 19 21 23 25 27 29 30 32 33 35 36 37 39 41 43 45 47 48 50 52 53 55 56 58 59 59 60 60 61 63 64 65 65 66 66 66 66 66 66 66 67 67 66 65 64 64 63 62 61 61 60 59 58 58 59 59 59
18 18 18 19 19 19 20 20 19 19 19 19 18 16 14 12 10 9 8 8 8 8 8 9 9 11 12 13 14 15 16 17 18 19 20 22 23 24 26 27 29 31 33 35 37 39 40 42 44 46 48 49 51 53 54 55 56 57 58 59 60 60 60 61 61 60 60 60 60 60 60 60 59 58 58 57 56 55 53 52 52 52 52 52 52
17 16 16 16 16 16 17 17 16 16 15 14 13 11 9 8 8 7 7 7 7 7 7 7 8 9 9 10 11 12 12 12 12 13 13 14 15 16 17 18 19 21 23 25 27 29 31 33 34 36 38 40 42 43 45 46 47 48 49 51 52 53 53 53 54 54 55 55 56 56 56 55 54 53 52 51 49 47 46 45 44 44 44 44 44
16 16 16 15 14 14 14 15 15 14 13 11 9 8 7 7 7 7 6 6 6 7 7 7 7 7 7 8 8 9 9 9 9 9 10 10 11 11 12 12 13 14 15 17 18 20 22 23 25 26 28 30 32 34 35 37 38 40 41 42 43 45 46 47 48 50 52 53 53 52 50 48 47 45 44 42 41 39 37 36 35 35 34 34 35
13 12 12 11 11 12 11 11 12 11 10 9 8 7 7 7 6 6 6 6 5 6 6 6 6 6 6 7 7 7 7 8 8 8 8 9 9 9 9 9 10 10 11 12 13 14 15 16 17 19 20 23 24 26 28 29 30 32 32 33 35 37 39 41 42 43 44 43 42 40 38 37 35 35 34 32 30 28 26 25 25 24 24 24 24
10 9 9 9 10 10 10 9 9 8 7 7 6 6 6 7 6 6 5 5 5 5 5 6 6 6 6 6 6 6 6 7 7 8 8 8 8 8 8 9 9 9 9 10 10 11 11 12 13 14 15 17 18 19 20 21 22 22 23 23 25 26 28 29 30 30 29 29 28 27 25 25 25 24 23 21 20 19 18 18 18 17 18 18 19
9 8 9 10 10 10 9 8 8 7 6 6 6 6 6 6 6 6 6 5 5 5 5 5 5 6 6 6 6 6 6 6 7 7 7 8 8 8 8 8 8 9 9 9 9 10 11 11 12 12 13 13 14 14 14 15 15 15 15 16 17 17 18 19 19 20 20 19 19 19 18 19 19 18 17 16 15 15 15 16 16 16 17 17 18
10 9 10 10 10 9 8 7 7 6 6 6 5 5 5 5 6 6 6 6 6 5 5 5 5 5 5 5 6 6 6 6 7 7 7 7 8 8 8 8 9 9 9 9 10 10 11 11 11 12 12 12 12 12 13 13 13 13 13 14 14 15 15 15 16 16 17 17 17 17 17 17 16 16 15 15 14 14 15 16 16 16 17 17 17
10 11 10 10 10 9 7 6 6 5 5 5 5 5 5 5 5 6 6 6 6 6 5 5 5 5 5 5 5 6 6 6 7 7 7 7 8 8 8 8 8 9 9 10 10 10 11 11 11 11 11 12 12 12 12 12 13 13 13 13 13 14 14 14 15 15 16 17 17 17 17 16 15 14 14 14 14 14 14 15 15 16 16 17 17
11 11 10 10 9 8 6 5 5 5 5 5 5 5 5 5 5 5 5 5 5 5 6 6 6 6 6 6 6 6 6 6 6 7 7 8 8 8 8 8 8 9 9 9 10 10 10 11 11 11 11 11 12 12 12 12 12 12 12 12 12 13 13 14 14 15 15 16 16 16 16 15 14 14 13 13 14 14 14 14 15 16 17 17 17
13 12 10 9 8 7 5 5 4 4 4 4 5 5 5 5 5 5 5 5 4 5 5 5 6 6 6 6 6 6 6 6 6 6 7 7 8 8 8 8 9 9 9 10 10 10 10 11 11 11 11 11 11 12 12 12 12 12 12 12 12 13 13 14 14 15 15 15 15 15 15 14 14 14 13 13 14 14 14 15 15 16 16 17 17
13 12 10 8 7 6 5 5 4 4 4 4 5 5 5 6 6 5 5 5 5 5 5 5 5 6 6 6 6 6 6 6 6 7 7 7 7 7 8 8 8 9 9 9 10 10 10 10 11 11 11 11 11 11 11 11 12 12 12 12 13 13 14 14 14 15 15 15 15 15 15 15 14 14 14 14 15 15 15 15 16 15 15 15 16
11 11 9 7 6 5 4 4 4 4 4 4 5 5 5 5 5 6 6 6 5 5 5 5 5 5 5 6 6 6 7 7 7 7 7 7 7 7 7 7 8 8 8 9 9 9 10 10 10 10 11 11 11 11 11 11 12 12 12 13 13 13 13 14 15 15 15 16 15 15 15 15 15 15 15 15 15 15 15 15 15 14 14 15 15
8 8 7 6 5 4 4 4 4 4 4 4 4 5 5 5 5 5 6 6 6 5 5 5 5 5 5 5 6 6 6 7 7 7 7 8 8 7 7 7 7 7 8 8 8 8 8 9 9 9 9 9 10 10 11 11 11 12 12 12 12 13 14 14 15 15 15 15 15 14 14 14 14 15 15 14 14 14 14 14 14 14 14 14 14
5 5 5 5 4 4 4 4 4 4 4 4 5 5 5 5 6 6 6 6 5 5 5 5 5 5 5 5 6 6 7 7 7 7 7 7 7 7 7 7 7 7 7 8 8 8 8 8 8 8 9 9 9 10 10 11 11 11 12 12 13 14 14 14 14 14 14 14 14 14 14 14 14 14 14 13 13 13 13 13 13 13 14 14 15
5 5 5 4 4 4 4 4 4 4 4 5 5 5 5 5 6 6 6 6 5 5 5 5 5 5 5 5 6 6 6 7 7 7 7 7 7 7 7 7 7 8 8 8 8 8 8 9 9 9 9 9 10 10 10 10 11 12 12 13 13 13 13 12 12 12 12 12 13 13 14 14 13 13 13 13 13 13 13 13 13 14 14 15 15
5 5 5 5 5 4 4 4 5 4 5 5 5 5 5 6 6 6 6 5 5 6 6 5 6 6 6 6 6 6 6 7 6 6 7 7 7 7 7 7 7 8 8 8 8 9 9 9 9 9 9 9 10 10 10 10 11 11 12 12 11 11 11 11 11 11 11 12 13 14 14 13 13 13 13 13 13 13 13 14 14 14 15 15 16
5 5 5 5 5 5 5 5 5 5 5 5 5 5 5 6 6 6 6 6 6 6 6 6 6 6 6 6 6 7 6 6 6 6 7 7 7 7 7 7 7 7 8 8 8 8 8 8 9 9 9 9 9 9 9 10 10 10 11 10 10 10 10 10 11 11 12 12 13 13 13 13 13 14 14 14 14 14 15 15 16 16 16 17 17
6 6 5 5 5 5 5 5 5 5 5 5 6 6 6 6 7 7 6 6 6 6 6 7 7 7 7 7 7 7 7 7 7 7 7 7 7 7 7 7 8 8 8 8 8 8 8 8 9 9 9 9 9 9 9 10 10 10 10 10 10 11 11 11 12 12 13 13 14 14 14 14 15 15 16 16 16 17 17 18 18 18 18 17 17
Wind_Speed
64 64 64 65 65 66 67 68 70 71 73 74 76 77 79 80 82 84 87 89 90 92 94 95 96 97 98 99 100 101 101 102 102 103 104 106 107 108 109 111 112 114 114 114 114 115 115 115 116 116 117 117 118 118 119 119 119 119 119 119 119 119 119 119 119 119 119 119 119 118 118 118 118 118 118 118 118 118 117 117 117 117 117 117 117
63 63 64 64 64 65 66 67 69 70 71 71 72 74 75 75 76 78 81 81 82 85 87 88 90 93 94 95 97 98 98 99 100 101 102 104 105 106 108 110 111 112 112 112 111 112 112 113 114 115 116 117 118 118 119 119 120 120 120 121 121 121 121 121 122 122 122 122 122 121 121 121 121 121 121 121 121 121 121 120 120 120 120 120 121
63 64 64 64 64 65 66 67 69 69 70 71 72 74 74 74 75 76 77 77 78 80 81 83 85 87 88 89 90 91 92 93 94 95 96 98 100 103 105 106 107 108 108 108 108 108 109 110 112 113 113 114 115 115 116 117 118 118 119 120 120 120 121 121 122 122 123 123 123 123 123 123 123 123 124 124 124 124 124 124 124 124 124 124 124
63 63 64 64 64 65 66 67 68 69 70 71 73 74 74 74 75 76 76 77 78 79 80 82 83 84 85 86 87 87 87 88 89 90 91 93 95 97 98 99 99 100 100 101 102 103 105 106 108 109 109 110 111 111 112 113 113 114 115 116 116 117 117 118 119 120 120 121 121 122 123 123 123 123 123 124 124 124 125 125 125 126 126 126 126
60 62 63 63 64 65 66 67 68 68 69 71 73 73 73 74 75 76 76 77 78 79 80 81 82 82 83 84 85 85 86 87 87 88 90 92 93 94 94 94 94 94 94 95 97 99 100 101 102 103 104 104 105 106 106 107 108 109 110 111 111 112 112 113 114 115 116 116 117 118 118 119 119 120 120 120 121 122 122 123 123 124 124 125 125
58 59 61 61 63 64 65 66 67 68 70 71 72 72 73 74 75 76 76 77 78 79 80 80 80 81 82 83 84 85 85 85 86 88 90 91 92 92 92 92 92 91 92 93 95 96 97 98 98 99 99 100 101 101 102 103 104 104 105 106 106 107 107 108 109 110 110 111 112 112 113 114 114 115 115 115 116 117 117 118 118 119 119 120 121
58 59 60 60 61 61 62 64 65 67 69 71 71 72 74 75 75 76 76 77 78 79 80 80 80 81 83 84 84 85 84 85 87 88 89 90 90 90 90 91 91 91 91 92 93 94 95 95 95 96 96 96 97 98 99 100 100 100 101 102 102 103 104 104 105 105 106 107 107 108 109 109 110 110 111 111 112 112 113 114 114 114 114 115 115
59 60 61 61 61 61 61 61 61 63 66 67 69 71 73 75 76 76 77 78 79 80 80 80 81 82 83 84 84 84 85 86 88 89 89 89 89 89 90 90 90 90 90 91 92 92 93 93 93 93 94 94 95 96 97 97 97 97 98 98 99 99 100 101 101 102 102 103 103 104 105 105 106 106 107 108 108 108 109 110 110 111 111 111 112
60 61 63 64 64 64 63 61 61 61 62 63 65 67 69 71 73 75 76 78 79 80 81 81 82 83 84 84 85 86 87 88 89 90 89 89 89 89 90 89 89 90 90 91 91 91 92 92 92 92 92 94 94 95 95 95 95 95 96 96 97 97 97 98 98 98 99 100 100 101 101 102 103 103 104 104 105 105 105 106 107 107 107 108 109
61 62 64 65 66 66 66 65 65 65 64 64 65 66 67 68 69 70 72 74 76 78 79 80 81 83 83 84 86 87 88 90 91 91 91 91 91 91 91 91 91 91 91 91 91 91 91 91 92 92 93 94 94 94 94 94 94 95 95 95 96 96 96 96 96 97 97 98 98 99 99 100 100 101 101 102 102 102 103 104 104 104 104 105 106
64 65 66 68 68 68 68 69 69 69 68 69 69 69 68 68 68 69 70 72 73 74 75 76 77 78 80 82 84 86 88 90 91 91 92 93 93 93 93 93 93 93 93 93 93 93 93 93 93 93 94 94 94 94 94 94 94 94 95 95 96 96 96 96 96 96 97 97 98 98 98 99 99 100 101 101 101 102 102 103 103 103 103 104 104
70 69 69 70 71 71 71 71 71 70 70 72 73 72 71 71 72 73 74 75 75 76 75 75 75 75 76 77 79 82 84 86 88 89 91 92 93 94 95 95 95 94 95 96 96 96 96 96 95 95 95 95 95 96 95 95 95 96 96 96 97 97 97 97 97 98 98 99 99 100 100 100 100 101 102 102 102 103 103 104 104 104 104 104 105
75 74 73 72 73 74 74 75 75 73 72 72 73 74 74 75 76 76 77 79 79 79 79 79 78 78 78 78 78 80 81 82 83 85 88 90 92 93 93 93 94 94 95 97 98 99 98 97 97 97 97 98 98 98 98 98 98 98 98 98 99 99 99 99 99 100 100 101 101 102 102 103 103 104 104 104 105 105 106 106 107 106 106 107 107
80 79 79 77 76 77 77 78 79 78 77 75 75 76 77 77 77 78 79 81 81 81 82 82 82 82 82 81 81 81 81 81 81 82 84 86 88 90 91 92 92 92 93 94 97 98 98 97 97 98 99 100 100 100 100 100 100 100 100 101 101 101 102 101 102 102 102 103 104 104 105 105 106 106 107 107 107 108 108 109 109 109 109 109 110
84 83 83 82 81 80 80 80 81 82 82 80 79 79 80 80 80 79 81 82 83 83 83 83 84 85 85 85 84 84 84 84 83 83 84 84 85 86 88 89 90 91 91 92 94 96 96 96 96 97 98 99 100 100 101 101 101 101 102 103 103 104 104 104 104 104 105 105 106 106 107 107 108 108 108 109 109 110 110 110 111 111 111 112 112
86 87 86 86 85 85 85 85 84 85 85 85 84 83 84 85 85 84 84 85 86 86 87 86 86 86 87 87 88 87 87 86 86 86 87 87 86 86 85 85 86 87 88 90 92 94 95 95 95 95 96 96 97 98 99 100 100 100 101 102 103 104 105 105 105 106 106 107 108 108 109 110 110 110 110 111 111 111 111 112 112 113 113 113 114
87 87 88 88 88 89 89 90 89 88 88 88 88 88 88 89 89 88 89 89 89 90 91 91 90 89 89 90 90 91 90 90 89 89 90 90 90 88 87 87 86 86 87 88 89 91 93 94 94 94 94 95 96 97 97 98 98 98 98 99 101 102 103 103 104 105 106 107 108 109 110 110 111 111 111 111 112 112 113 113 113 114 114 114 115
86 88 89 89 89 90 92 93 92 91 91 91 91 91 92 93 93 93 93 94 94 94 94 94 94 93 93 93 94 94 94 93 93 92 92 92 92 91 91 90 90 90 89 89 90 91 92 93 93 93 94 94 95 96 97 97 97 97 97 98 98 100 100 101 102 103 104 105 106 107 108 109 110 110 110 111 111 112 112 112 113 113 114 114 114
85 88 91 91 90 91 93 95 95 95 94 94 94 94 94 96 96 97 98 98 99 98 97 96 96 97 97 98 98 98 98 98 97 96 95 95 94 94 94 94 94 94 93 93 93 93 94 95 95 95 95 96 97 98 98 98 98 97 97 98 98 99 99 100 101 103 104 104 105 106 108 108 109 109 109 110 110 110 111 111 112 112 113 113 113
85 86 90 93 93 93 93 95 97 97 97 96 96 96 96 97 98 100 101 102 102 102 101 101 100 100 100 100 101 102 102 102 101 101 100 98 98 98 98 98 98 98 97 97 96 96 96 97 98 98 98 99 100 100 101 101 100 100 99 99 100 100 100 101 102 103 104 105 106 107 108 109 109 109 109 109 109 109 110 110 111 111 112 112 113
87 86 88 92 95 95 95 96 97 98 98 98 98 98 98 98 99 101 102 103 104 104 104 104 104 104 103 103 104 105 106 106 106 105 104 103 102 101 101 101 101 102 102 101 101 100 100 101 101 101 102 102 103 103 103 104 103 103 103 103 103 103 103 103 104 105 106 108 108 109 109 110 110 110 110 109 109 109 109 110 111 111 112 112 112
87 87 87 89 92 95 96 97 97 98 99 99 99 98 98 98 99 100 101 103 104 105 106 106 107 107 107 107 108 109 110 110 110 109 109 108 107 106 105 104 104 105 105 106 106 105 105 105 105 105 105 106 106 106 107 107 107 107 107 106 106 106 106 106 107 108 110 111 112 112 113 113 113 113 112 111 111 111 111 112 112 113 113 114 114
84 86 87 88 90 92 95 96 97 98 99 99 99 99 98 98 98 99 99 101 102 103 105 106 107 108 109 110 112 113 114 114 114 113 113 113 113 112 111 110 110 110 110 110 110 110 110 110 110 110 109 110 110 110 111 111 111 111 111 110 110 109 110 110 111 112 113 114 115 116 117 117 117 117 116 115 114 114 114 115 115 116 116 116 116
80 82 84 86 88 90 92 94 95 97 98 98 98 98 98 98 98 98 98 99 99 100 102 104 105 107 110 111 113 115 116 117 118 118 117 117 117 118 117 117 116 115 115 116 116 116 116 115 115 114 114 114 114 114 114 115 115 115 114 114 113 113 113 113 114 115 116 117 118 119 120 121 121 121 120 119 118 118 118 119 119 119 119 119 119
75 77 79 82 84 86 88 90 92 93 95 96 96 96 97 96 97 97 97 97 98 98 99 100 102 104 106 109 111 114 116 118 120 120 120 120 121 121 121 121 121 120 120 120 120 120 120 120 119 119 119 118 118 118 118 118 118 117 117 117 116 116 116 117 118 119 119 120 121 122 123 124 124 124 123 122 121 122 122 122 122 122 122 122 121
73 74 75 77 79 81 83 85 88 90 91 93 94 95 95 95 95 95 96 97 98 98 98 99 100 101 104 106 108 110 113 116 118 119 120 120 121 121 121 122 122 122 122 122 122 123 122 122 122 122 122 121 121 121 120 120 120 119 119 119 119 119 119 120 121 121 122 123 123 125 126 127 127 126 125 124 123 124 124 123 123 123 122 121 121
74 74 74 75 76 78 80 82 84 86 88 90 92 93 94 95 95 96 96 96 97 99 100 100 101 102 103 105 106 108 110 113 115 117 118 118 119 120 120 120 121 121 121 122 122 122 123 123 123 123 123 123 122 122 121 121 121 121 121 121 121 121 121 122 122 123 123 124 125 126 127 128 127 126 124 124 124 124 123 123 122 121 121 120 120
76 76 75 75 76 77 79 80 82 83 85 87 90 92 93 95 96 97 98 98 98 99 100 102 103 104 105 106 107 109 110 112 114 115 117 118 118 119 119 120 120 120 120 120 121 121 121 122 122 122 122 122 122 122 121 121 121 121 121 121 121 121 121 122 122 123 124 124 125 127 128 128 126 125 124 123 123 123 122 122 121 120 119 119 118
79 79 78 77 77 78 80 81 83 84 85 87 89 91 93 94 95 97 98 99 100 100 101 102 104 105 107 108 110 111 112 113 115 116 117 118 120 120 121 121 121 121 121 122 122 122 122 122 122 122 122 122 122 121 121 121 120 120 120 120 120 120 120 120 121 122 122 123 124 125 126 126 124 123 123 123 122 122 121 120 119 118 117 117 116
79 80 80 80 80 81 82 83 84 85 87 88 90 92 94 96 97 98 99 101 102 102 102 103 104 106 107 109 111 112 113 115 116 117 118 120 121 122 123 123 124 124 124 124 124 124 124 124 124 123 123 123 122 122 122 121 121 121 120 120 120 119 119 120 120 121 121 122 123 123 124 123 123 123 122 122 122 121 121 120 119 118 117 116 115
79 79 79 80 81 82 83 84 85 87 88 90 91 93 95 97 98 100 101 103 103 104 105 105 105 106 107 109 110 112 114 115 116 118 119 121 122 123 124 125 126 126 126 126 126 126 126 126 126 125 125 124 124 123 123 123 123 122 122 121 121 121 121 121 121 121 122 122 123 123 123 123 123 124 123 123 123 122 121 121 120 119 118 117 117
78 79 79 80 81 83 84 85 86 87 88 90 91 93 94 95 97 99 101 102 103 104 104 105 105 106 106 108 109 110 111 113 115 117 119 120 122 123 124 125 126 127 127 128 128 128 128 128 128 127 127 126 126 126 125 125 124 124 124 124 123 123 123 123 123 123 123 123 124 124 124 125 125 125 125 125 124 124 123 123 122 121 120 119 119
78 78 78 79 80 82 83 84 85 86 86 88 90 92 92 93 95 97 99 100 100 101 101 101 102 103 103 105 106 107 108 109 111 113 115 117 119 121 122 124 125 126 127 128 128 128 128 128 128 128 128 128 127 127 127 126 126 126 126 125 125 125 125 125 125 125 125 125 125 126 126 126 126 126 126 126 125 125 124 124 123 122 121 120 120
77 77 76 76 77 78 80 81 82 82 83 84 87 90 91 92 93 95 96 96 96 96 96 97 97 98 99 100 101 102 103 105 106 109 110 113 115 117 119 120 121 123 124 125 126 127 127 127 127 127 128 127 127 127 127 127 127 127 127 127 127 126 126 126 126 126 126 126 126 126 126 126 126 126 126 126 126 125 124 123 122 121 121 121 120
76 76 75 75 75 75 76 77 78 79 80 82 85 87 88 88 90 91 91 91 92 92 92 92 93 93 95 95 96 98 99 100 101 103 104 106 109 111 112 114 115 117 118 119 121 122 122 123 124 124 125 125 126 126 126 126 127 127 127 126 126 126 126 126 126 125 125 125 125 125 125 126 126 125 125 125 125 124 124 122 121 121 120 119 119
76 75 75 74 73 73 73 74 75 77 77 79 81 83 83 83 85 86 86 86 86 87 88 89 89 89 90 91 91 92 93 94 95 96 98 100 102 104 105 107 108 109 110 112 113 114 116 117 118 119 120 120 121 122 123 123 124 124 124 124 124 124 124 123 123 123 123 123 124 124 124 124 124 124 124 124 123 123 122 120 119 119 118 117 117
75 74 73 72 71 71 72 72 72 74 75 75 76 77 77 78 80 82 81 81 81 82 83 84 85 85 86 86 86 86 87 88 90 91 93 94 96 97 98 100 101 102 103 104 105 106 108 109 110 111 112 114 115 116 117 118 119 120 120 119 119 119 119 119 120 120 120 121 121 121 121 121 121 121 121 121 120 119 118 117 116 115 114 113 114
74 72 71 71 71 71 72 72 71 71 72 72 72 72 72 73 76 77 76 76 76 77 77 78 79 81 81 82 82 82 83 84 86 88 89 91 92 93 93 94 95 96 97 97 98 99 100 101 103 104 105 106 108 110 111 112 113 114 114 113 113 113 113 114 115 115 116 116 117 117 117 116 116 117 117 116 115 114 113 112 111 109 109 109 110
75 73 72 72 72 72 71 71 70 69 70 70 70 70 69 69 71 72 72 72 72 73 73 74 74 76 77 78 79 80 81 82 83 85 87 88 89 90 90 91 91 91 92 92 93 93 94 95 97 98 99 101 102 104 105 105 106 107 107 106 106 107 107 107 108 109 110 110 111 111 111 111 111 112 112 111 110 108 107 106 106 105 105 105 106
78 77 75 74 73 72 70 69 68 67 68 68 68 68 68 67 66 66 67 69 70 71 71 71 72 72 73 75 76 77 78 80 81 82 84 85 86 87 87 88 88 88 88 88 89 90 90 91 93 94 95 96 98 99 100 100 100 101 101 101 101 102 102 102 103 103 104 105 106 106 107 107 107 107 107 106 105 104 102 102 102 102 102 102 102
79 78 76 74 72 71 69 67 66 65 65 65 64 65 66 66 64 63 63 65 67 68 69 70 70 71 71 72 73 73 74 76 77 79 81 82 83 84 84 85 85 85 85 86 86 87 88 89 90 91 92 93 94 95 96 96 97 97 98 98 98 98 99 99 99 99 100 101 102 103 104 105 104 104 103 102 101 100 100 99 98 98 98 99 98
78 77 75 72 71 71 69 66 64 62 62 61 61 62 64 64 64 63 62 63 64 65 66 68 69 70 70 71 71 71 71 72 73 74 76 78 79 80 81 82 82 83 83 83 84 85 86 87 88 89 89 90 91 92 93 93 94 95 95 96 95 95 95 95 96 96 97 98 99 101 102 102 101 101 99 98 98 98 97 96 95 95 95 95 95
76 75 73 71 69 69 68 65 62 60 59 59 59 59 61 62 62 63 63 62 62 61 62 63 65 67 68 69 69 70 70 70 71 71 72 73 75 76 77 78 79 80 81 81 82 83 84 85 86 86 87 88 89 90 91 91 92 92 92 93 92 92 92 93 93 94 95 96 96 97 98 99 98 97 96 95 95 95 94 94 93 92 92 92 92
72 73 72 70 69 68 66 64 61 59 57 57 57 58 58 59 60 61 61 62 61 61 60 60 61 63 64 66 66 67 68 68 69 69 70 71 71 72 73 74 76 77 78 79 80 81 82 83 84 85 86 87 87 88 89 89 89 89 89 89 89 89 89 90 90 91 92 92 93 94 94 95 94 94 93 93 92 92 92 91 91 91 90 89 88
69 70 69 69 68 66 63 62 60 58 57 56 55 55 57 58 58 58 58 60 61 61 60 60 60 60 61 62 63 64 65 65 66 67 68 69 69 70 70 71 72 73 75 76 77 78 80 80 81 82 83 84 85 85 85 86 86 86 86 86 86 86 86 86 86 87 88 89 90 90 90 90 91 90 90 90 89 89 89 89 89 88 87 86 85
65 66 66 67 66 63 61 60 59 57 56 55 54 53 54 56 56 56 56 57 58 59 59 59 58 59 59 60 61 61 62 62 63 64 65 66 67 67 68 69 70 71 72 73 74 75 76 77 78 79 79 80 80 80 81 82 82 82 83 83 83 83 83 83 84 84 85 86 87 87 87 87 87 87 88 87 87 87 87 87 87 86 85 84 82
63 62 63 64 63 62 60 59 58 57 55 55 54 53 53 54 54 54 55 56 56 57 57 57 57 57 57 58 59 59 60 60 61 61 62 63 64 65 65 66 67 68 69 70 71 72 73 74 75 75 75 76 76 77 78 78 79 79 79 79 79 80 81 81 82 82 83 83 84 84 84 84 85 85 86 85 85 85 85 85 84 83 82 80 79
61 61 62 62 61 60 60 59 58 57 55 54 53 52 52 52 52 53 54 54 54 55 55 55 55 55 56 56 57 57 58 58 59 59 60 61 62 63 63 64 64 65 66 67 68 69 70 71 71 72 72 73 73 74 75 76 75 76 76 77 78 79 79 80 80 80 80 80 80 81 81 82 83 83 83 83 83 82 82 81 80 79 78 77 76
59 60 61 60 60 60 59 59 58 56 55 54 52 51 51 50 50 51 52 53 53 53 53 54 54 54 54 54 55 55 56 56 57 58 59 59 60 61 62 62 62 63 64 64 65 66 67 68 68 69 70 70 71 72 72 72 72 73 74 76 76 77 77 77 77 76 76 76 77 78 79 80 80 80 80 80 79 79 78 77 76 75 74 73 73
59 59 60 59 59 59 59 59 58 56 55 54 52 51 50 49 49 50 50 51 51 52 52 52 52 53 53 53 53 54 54 54 55 56 56 57 58 59 60 60 61 62 62 63 63 64 64 65 66 66 67 68 68 69 69 69 70 71 72 73 73 73 73 73 73 72 73 73 74 75 76 77 77 77 77 76 76 75 75 74 74 73 73 72 72
58 59 59 58 58 57 57 57 56 55 54 53 52 50 49 48 48 49 49 49 49 49 49 50 51 51 51 52 52 53 53 53 53 54 54 55 56 56 57 58 59 60 60 61 61 62 62 62 63 64 64 65 65 66 66 67 68 69 69 69 69 69 69 69 69 69 69 70 71 72 72 72 73 73 73 73 73 72 72 72 72 72 72 72 71
Wind_Direction
263 263 262 262 261 261 260 260 260 259 258 258 257 257 257 257 257 257 257 257 257 257 258 258 258 259 259 259 259 259 259 259 259 259 259 259 260 260 260 260 260 260 260 260 260 260 260 261 261 261 261 261 261 261 261 261 261 262 262 262 262 262 262 262 262 262 262 262 262 262 262 262 262 262 262 262 261 261 261 261 260 260 260 260 260
263 263 262 262 261 261 261 261 260 260 260 260 259 259 258 257 257 257 257 258 258 258 258 258 259 259 259 259 259 259 259 259 259 259 259 259 259 259 259 260 260 260 261 261 261 262 262 262 262 262 261 261 261 261 261 262 262 262 262 262 262 263 263 263 263 263 263 263 263 263 263 263 263 263 263 262 262 262 262 262 262 261 261 261 261
262 262 262 262 262 261 261 261 261 261 261 261 260 259 259 259 258 258 259 259 258 258 258 258 258 258 259 259 259 260 260 260 260 260 259 259 259 258 258 259 260 261 261 262 262 262 262 262 261 261 261 261 262 262 262 262 262 263 263 263 263 263 263 263 263 263 264 264 264 264 264 263 264 263 263 263 263 263 263 263 263 262 262 262 262
264 264 263 263 263 263 262 262 262 262 261 261 260 260 260 260 260 259 259 259 259 259 259 259 259 259 259 260 260 260 260 260 260 260 260 259 259 259 259 259 260 261 261 261 261 261 261 261 261 261 261 261 262 262 262 262 262 262 262 263 263 263 263 263 263 264 264 264 264 264 264 264 264 264 264 264 264 264 264 263 263 263 263 263 262
270 268 267 266 265 265 264 264 264 264 263 263 262 262 262 262 261 260 259 259 259 259 259 259 260 260 260 260 260 260 260 260 260 260 260 260 260 260 260 260 260 260 261 261 261 260 260 260 261 261 261 261 261 261 261 261 261 262 262 262 262 262 262 263 263 263 263 263 264 264 264 264 264 264 264 264 264 264 264 263 263 263 263 263 263
276 275 274 272 270 269 268 267 267 267 266 265 265 265 264 263 263 262 261 261 260 260 259 259 259 259 259 259 259 259 259 259 259 259 259 259 259 260 260 260 260 260 260 260 260 260 260 260 261 261 261 261 261 261 261 261 261 261 261 261 262 262 262 262 262 262 263 263 263 263 263 263 263 264 264 263 263 263 263 263 263 263 263 263 263
281 280 279 278 276 274 273 271 270 270 269 268 268 267 266 266 265 265 264 263 262 261 260 260 260 260 260 260 260 260 260 260 259 259 259 259 259 260 260 260 260 260 260 260 260 260 260 260 261 261 261 261 261 261 261 261 261 261 261 261 262 262 262 262 262 262 262 262 263 263 263 263 263 263 263 263 263 263 263 263 263 263 263 263 263
282 281 280 279 277 276 274 273 272 271 270 269 269 268 268 267 267 266 265 265 264 263 262 262 261 261 261 261 261 261 261 260 260 259 259 260 260 260 260 260 260 260 260 260 260 260 260 261 261 261 261 261 261 261 261 261 261 261 261 261 261 261 261 262 262 262 262 262 262 262 263 263 263 263 263 263 263 263 263 263 263 263 263 263 263
281 280 279 277 276 274 273 272 271 270 269 269 269 268 268 267 267 267 266 265 264 264 263 263 262 262 262 262 262 262 262 261 261 261 261 261 261 261 261 261 260 260 260 260 260 260 261 261 261 261 261 261 261 261 261 262 262 262 262 262 262 262 261 262 262 262 262 262 262 262 263 263 263 263 263 263 263 263 263 263 263 263 263 263 263
280 279 277 276 274 273 272 270 269 268 267 267 267 266 266 267 267 267 267 267 266 265 264 263 263 262 262 262 262 262 262 262 262 262 262 262 262 262 262 261 261 261 261 261 261 261 261 261 261 261 261 261 261 262 262 262 262 262 262 262 262 262 262 262 262 262 262 263 263 263 263 263 263 263 263 263 263 263 263 263 263 263 263 263 263
280 279 278 277 275 274 272 271 269 269 268 267 266 265 265 265 265 265 265 266 266 266 265 265 264 264 263 263 262 262 261 261 262 262 262 263 263 263 262 262 262 262 262 262 262 261 261 261 261 261 261 261 262 262 262 262 262 263 263 263 263 263 263 263 263 263 263 264 264 264 264 264 264 264 264 264 264 264 264 264 263 263 263 263 263
282 280 279 279 278 276 274 273 271 270 270 269 268 267 267 266 265 264 264 264 264 264 264 264 264 264 264 264 263 263 263 262 262 262 262 262 262 262 262 262 263 263 263 263 263 262 262 262 262 262 262 262 262 262 262 262 262 262 262 262 263 263 263 263 263 264 264 264 264 264 264 264 264 264 265 265 265 265 265 265 264 264 264 264 264
282 280 279 278 278 277 277 275 274 272 270 270 270 269 268 267 266 266 265 265 265 264 264 263 263 262 262 262 262 263 263 263 263 263 262 262 262 262 262 262 262 262 262 262 262 262 262 262 262 262 262 262 262 262 262 262 262 262 262 262 262 262 262 262 262 263 263 263 263 263 264 264 264 264 264 265 265 265 265 265 265 265 265 265 265
280 279 277 276 275 275 275 275 275 274 272 271 270 270 269 267 267 267 267 266 266 266 266 265 265 264 263 262 262 262 262 262 262 262 262 262 262 262 261 261 261 261 261 262 262 262 262 262 262 262 262 262 262 262 262 262 262 263 263 263 263 263 263 263 262 262 262 263 263 263 263 263 263 263 264 264 264 264 265 265 265 265 265 265 265
277 276 275 274 273 272 271 271 272 272 272 272 271 270 270 269 268 267 267 267 267 266 266 265 265 265 265 264 264 263 262 262 262 261 261 261 261 261 261 261 261 261 261 261 262 263 262 262 261 261 262 262 262 262 262 262 262 263 263 263 263 263 263 263 263 263 263 263 263 263 263 263 263 263 263 264 264 264 264 264 265 265 265 265 265
274 274 274 273 272 271 269 268 268 268 269 269 269 269 269 269 269 268 267 267 267 267 266 265 264 264 265 265 264 264 263 263 263 262 261 261 260 260 260 260 260 260 260 260 261 262 262 262 262 262 262 262 262 262 262 262 262 262 262 263 263 263 264 264 264 264 264 264 264 264 264 264 264 264 264 264 264 264 265 265 265 265 265 265 265
273 273 273 272 272 271 269 268 267 266 265 265 266 266 266 267 267 267 267 267 267 267 267 266 265 265 264 264 265 264 264 264 264 263 263 262 262 261 261 261 260 260 260 260 260 261 262 262 262 262 262 262 262 262 263 263 263 262 262 263 263 263 263 264 264 264 264 264 264 264 264 264 264 264 264 264 264 265 265 265 265 265 266 266 266
272 273 272 271 270 270 269 268 267 265 264 263 263 263 264 264 264 265 265 265 265 265 266 267 267 267 266 265 265 264 264 264 264 263 263 263 262 262 262 261 261 261 261 261 261 262 262 263 263 263 263 263 263 263 262 263 263 263 263 263 263 263 264 264 264 264 264 264 264 264 264 264 264 264 264 264 264 264 265 265 265 265 266 266 266
270 271 272 271 270 269 269 268 267 266 265 264 263 262 262 262 262 263 263 263 264 264 264 265 266 266 266 266 266 265 265 264 263 263 262 261 261 261 261 261 261 261 261 261 261 262 262 262 263 263 263 263 263 263 263 263 263 263 263 263 263 263 264 264 264 264 265 264 264 264 264 264 264 264 264 264 265 265 265 265 265 266 266 266 266
269 269 270 271 270 269 269 268 268 268 266 265 264 263 262 261 261 261 262 262 262 263 263 263 263 263 264 265 265 265 265 265 264 263 262 261 260 259 259 259 260 261 261 261 261 261 261 262 262 262 263 263 263 264 264 264 264 264 264 264 264 264 264 264 265 265 265 265 265 265 265 265 265 265 265 265 265 266 266 266 266 266 266 267 267
271 269 268 269 270 270 269 268 268 268 268 267 266 265 264 263 262 262 261 261 261 262 262 262 262 262 262 262 263 263 264 264 264 264 264 263 262 260 259 258 259 259 260 261 261 261 261 261 262 262 262 263 263 264 264 265 265 265 265 265 265 265 266 266 266 266 266 266 266 266 266 266 266 266 266 266 266 266 266 266 267 267 267 267 267
270 270 268 267 268 268 269 268 268 268 268 268 267 266 265 264 263 262 262 262 262 261 261 261 261 261 261 261 261 262 262 263 264 264 264 264 264 263 262 261 260 260 261 261 261 261 262 262 262 262 262 263 263 264 264 264 265 265 265 265 265 266 266 267 267 267 267 268 268 268 268 267 267 267 267 267 267 267 267 267 267 267 267 268 268
270 270 269 268 268 268 268 268 268 267 267 267 267 267 266 266 265 264 263 262 262 262 261 261 261 261 260 260 260 261 262 262 263 263 264 264 265 265 265 264 264 263 263 263 263 263 263 263 263 263 263 263 263 264 264 264 264 264 265 265 265 265 266 266 267 267 267 268 268 268 269 269 268 268 268 268 268 268 268 268 268 269 269 269 269
272 270 270 269 269 269 269 269 268 268 268 267 267 267 266 266 266 265 264 263 263 262 262 261 261 260 260 260 260 260 261 262 262 263 263 264 264 265 265 266 265 265 265 265 265 265 265 265 265 265 264 264 264 264 265 265 265 265 266 266 266 266 266 266 267 267 267 268 268 268 269 269 269 269 269 269 269 269 269 270 270 270 270 270 270
274 272 271 270 270 269 269 269 270 269 269 269 268 268 267 266 265 265 265 264 264 263 262 261 261 260 260 260 260 260 260 261 261 262 262 263 263 264 264 265 265 265 266 266 266 266 266 266 266 266 266 265 265 265 266 266 266 267 267 267 267 268 268 268 268 268 268 268 268 268 269 269 269 269 269 270 270 270 270 270 270 270 270 270 271
277 275 274 272 271 270 270 269 270 270 270 270 270 269 268 267 266 265 264 264 264 263 263 262 261 261 260 260 260 259 260 260 261 261 262 262 263 263 263 264 264 265 265 265 266 266 266 266 266 266 266 266 266 267 267 267 267 267 268 268 268 268 268 268 268 269 269 269 269 269 269 269 269 270 270 270 270 270 270 271 271 271 271 271 271
281 279 277 275 273 272 271 270 269 269 269 269 269 269 269 269 268 267 265 264 263 263 262 262 262 261 260 260 260 259 259 260 260 261 262 262 263 263 263 263 264 264 264 265 265 265 266 266 267 267 267 267 267 267 267 267 267 268 268 268 268 268 268 268 269 269 269 270 270 270 270 270 270 271 271 272 272 272 272 272 272 272 272 272 272
283 281 279 277 276 275 273 272 271 270 269 269 268 268 268 268 268 267 267 265 264 263 262 262 261 261 261 260 260 260 259 259 259 260 261 261 262 262 263 263 263 263 264 264 264 265 265 266 266 266 267 267 267 268 268 268 268 268 268 268 268 268 268 268 269 269 269 270 270 270 271 271 272 272 273 273 273 273 273 273 273 273 273 273 273
285 284 283 281 279 277 275 274 274 273 272 271 270 270 269 269 268 268 267 267 266 264 263 262 261 261 261 261 260 260 260 259 259 259 259 260 260 261 261 262 262 263 263 263 264 264 264 265 265 266 266 266 267 267 268 268 268 268 268 268 268 268 268 269 269 269 269 269 270 270 271 272 273 273 273 274 274 274 274 274 274 274 274 273 273
284 284 283 282 281 279 278 276 275 274 273 272 272 271 271 271 271 270 269 269 268 267 265 264 262 261 261 260 260 260 260 260 259 259 259 259 259 260 260 261 261 262 262 263 263 263 264 264 265 265 266 266 267 267 267 268 268 268 268 269 269 269 269 269 269 269 269 270 270 271 272 272 273 273 273 274 274 274 274 274 274 274 274 274 274
282 282 281 281 280 279 278 277 276 275 274 273 272 271 271 271 271 270 270 269 269 268 267 266 265 263 262 261 260 260 260 260 260 260 259 259 259 259 259 260 260 261 261 262 262 263 263 264 264 265 265 266 266 267 267 267 268 268 268 268 269 269 269 269 269 269 270 270 271 271 272 272 273 273 273 273 274 274 274 274 274 274 274 274 274
281 280 280 279 279 278 277 277 276 275 274 274 273 272 271 271 271 270 270 269 269 268 268 267 266 265 263 262 261 260 259 259 259 259 259 259 259 259 260 260 260 260 261 261 262 262 263 263 264 264 265 265 265 266 266 267 267 268 268 268 268 269 269 269 269 269 270 270 271 271 272 272 272 273 273 274 274 274 274 274 274 274 274 274 274
282 281 280 279 278 277 277 277 276 276 275 275 274 274 273 273 272 272 272 271 270 269 268 267 266 265 264 263 262 261 260 259 259 259 259 259 259 260 260 260 260 260 261 261 261 262 262 263 263 264 264 265 265 265 266 266 267 267 267 267 268 268 268 269 269 270 270 270 271 271 272 272 273 273 274 274 274 274 274 274 274 274 274 274 273
284 283 281 279 278 278 278 277 277 277 276 276 276 276 276 276 275 274 274 273 272 270 269 268 267 266 265 264 263 262 261 261 260 260 259 259 259 259 259 260 260 260 260 261 261 262 262 263 263 264 264 264 265 265 266 266 266 266 267 267 267 268 268 269 269 270 270 271 271 272 272 273 273 273 274 274 274 274 274 274 274 273 273 273 273
286 285 284 283 281 280 280 280 279 278 278 277 277 277 277 277 276 275 273 272 271 270 269 268 267 265 265 264 263 263 262 262 261 261 260 260 260 260 260 260 260 260 260 261 261 262 262 263 263 263 264 264 264 265 265 265 265 266 266 267 267 268 268 269 270 270 271 271 272 272 272 272 272 273 273 273 273 273 273 273 273 273 274 274 274
288 287 286 285 284 283 282 282 282 281 280 279 278 278 277 276 275 273 272 271 270 269 269 268 267 266 265 264 263 263 262 262 262 261 261 261 260 260 260 260 260 260 260 261 261 261 262 262 262 263 263 264 264 264 265 265 265 266 266 267 267 268 269 269 270 270 270 271 271 271 271 271 271 272 272 272 272 273 273 273 274 274 274 274 275
289 289 288 288 288 287 286 285 284 283 282 280 279 278 278 276 274 273 272 271 270 269 268 268 267 266 265 264 263 262 262 262 262 262 261 261 261 261 261 261 261 261 261 261 261 261 262 262 262 263 263 263 264 264 264 265 265 265 266 266 267 267 268 268 268 269 269 269 269 270 270 270 271 271 272 272 272 273 273 274 274 275 275 275 275
292 292 292 292 292 291 290 288 287 285 284 282 280 279 277 276 274 274 273 272 271 269 268 267 266 266 265 265 264 263 262 262 262 262 261 261 261 261 261 261 261 261 262 262 262 262 262 262 262 262 263 263 263 263 263 264 264 265 265 266 266 266 267 267 267 268 268 269 269 269 270 271 271 271 272 272 273 273 274 274 275 275 275 275 275
295 295 295 294 294 292 291 290 289 288 287 285 283 281 279 277 276 276 275 274 272 271 269 267 266 265 265 264 264 264 263 263 262 262 262 262 262 262 262 262 262 262 262 262 262 262 263 263 263 263 263 263 263 263 263 264 265 265 266 266 267 267 267 267 267 268 268 269 270 270 271 271 271 271 272 272 273 274 274 275 275 275 275 275 275
297 297 296 296 295 293 292 291 290 289 287 285 284 283 282 280 278 277 276 275 274 272 271 269 268 266 265 264 264 264 264 264 263 263 263 263 263 263 263 263 263 263 263 263 263 263 263 263 263 263 263 263 263 264 264 265 265 266 266 267 267 267 267 268 268 269 269 270 271 271 271 271 271 272 272 273 274 275 275 275 275 275 275 275 275
295 295 295 295 295 294 293 292 290 289 287 286 285 284 283 282 280 277 274 273 272 271 271 271 270 269 268 267 266 265 264 264 263 263 263 264 264 264 264 264 264 264 263 263 263 263 262 262 262 262 263 263 263 264 264 265 265 266 266 266 267 267 268 268 269 269 270 270 270 271 271 272 272 273 273 274 275 275 275 275 275 275 276 276 276
294 294 294 295 295 294 293 292 291 289 288 287 286 285 283 282 281 278 276 273 271 270 270 271 271 271 270 270 269 267 266 264 263 263 262 263 263 263 263 264 264 264 263 263 263 263 263 263 263 263 263 263 263 264 264 264 265 265 266 266 267 267 268 269 269 269 270 270 270 271 271 272 273 273 274 274 275 275 275 275 275 275 275 275 275
293 294 295 296 296 295 294 293 292 291 289 288 287 285 283 281 281 279 278 276 274 272 270 270 269 269 269 269 269 268 267 266 265 264 263 262 262 262 262 262 263 263 263 263 263 263 263 263 263 263 264 264 264 264 264 265 265 265 266 267 267 268 268 268 269 269 269 270 270 271 272 272 273 274 274 274 275 275 275 275 275 274 274 274 274
294 295 296 297 296 295 294 294 293 292 290 289 288 286 284 282 280 279 279 278 277 275 273 271 269 268 268 268 267 267 267 266 266 265 264 263 263 262 262 261 261 262 262 262 262 262 262 263 263 263 263 264 264 264 265 265 265 266 266 267 267 267 268 268 268 269 269 270 270 271 271 272 273 273 274 274 274 274 274 274 274 273 273 273 273
295 296 296 296 295 294 294 295 294 293 292 290 288 287 285 283 281 280 279 279 278 277 275 274 272 270 269 267 267 266 266 265 265 265 265 264 264 264 263 263 262 262 262 262 262 262 262 262 263 263 263 264 264 265 266 266 266 267 267 267 267 268 268 268 269 269 270 270 270 270 271 271 272 273 273 273 273 273 273 272 272 273 273 273 272
296 296 296 295 295 295 296 296 295 294 293 292 290 288 285 283 283 282 280 278 278 277 276 275 274 273 271 269 268 267 266 266 265 265 265 265 264 264 264 264 264 264 264 263 263 263 263 263 263 264 264 265 265 266 266 266 266 267 267 267 268 268 269 269 268 268 268 269 269 269 270 270 271 271 271 271 271 271 271 272 272 273 273 273 273
297 297 296 296 296 298 298 297 296 296 295 293 291 289 286 285 284 283 281 279 278 278 277 276 275 274 272 271 270 269 268 268 267 267 266 266 265 265 265 265 264 265 265 265 265 265 265 265 265 265 265 266 266 266 266 266 266 267 267 268 268 267 267 267 267 267 267 268 268 269 270 270 270 270 271 271 271 271 271 272 272 273 274 274 275
299 299 297 297 298 299 299 298 297 297 296 294 292 290 288 287 286 284 283 282 280 279 278 277 276 274 273 272 271 270 269 269 269 268 268 268 267 267 267 266 266 265 265 265 265 265 265 265 265 266 266 266 266 265 266 266 266 266 266 266 266 265 265 266 266 267 267 268 269 270 270 270 270 270 271 271 271 272 272 273 273 274 274 275 275
301 300 299 299 300 299 299 298 298 297 296 294 292 291 290 289 288 286 285 284 282 281 280 278 277 276 274 273 272 271 270 269 269 269 269 269 269 269 268 268 267 267 266 266 266 265 265 265 265 265 265 265 265 265 265 266 266 266 265 265 265 266 266 267 267 268 269 269 269 269 269 270 270 271 271 272 273 273 274 274 275 275 275 275 275
302 300 300 300 300 299 299 298 298 297 296 295 293 292 291 290 289 287 286 284 283 281 280 279 278 277 276 275 273 272 271 270 270 269 269 269 268 268 269 269 269 268 268 267 267 267 267 267 266 266 266 266 266 266 266 266 266 266 266 266 267 267 268 268 269 269 269 269 269 269 270 270 271 272 273 273 274 274 275 275 275 275 275 275 274
301 300 300 300 299 298 298 298 298 298 297 295 294 293 292 291 289 288 286 284 282 281 280 279 278 277 276 275 274 273 273 272 271 270 270 269 269 268 268 268 268 268 268 268 268 268 268 268 268 267 267 267 267 267 268 267 267 267 267 268 269 269 270 270 270 270 270 270 270 270 271 271 272 273 273 274 274 275 275 275 275 275 275 275 275